Location: Minneapolis
(45.0000°N, 93.0000°W)
Time: 13:45:00
(UTC-05:00)

Envisat - Visible Passes

Search period start: 17 October 2017 00:00
Search period end: 27 October 2017 00:00
Orbit: 764 x 766 km, 98.2° (Epoch: 17 October)

Date Brightness Start Highest point End Pass type
(mag) Time Alt. Az. Time Alt. Az. Time Alt. Az.
17 Oct 4.8 19:09:18 11° ENE 19:10:48 12° NE 19:12:35 10° NE visible
17 Oct 3.0 20:49:31 68° NNE 20:49:31 68° NNE 20:54:03 10° N visible
17 Oct 5.8 22:29:44 13° WNW 22:29:44 13° WNW 22:31:05 10° WNW visible
18 Oct 3.5 20:12:32 37° ENE 20:12:32 37° ENE 20:17:03 10° N visible
18 Oct 4.9 21:52:45 26° WNW 21:52:45 26° WNW 21:55:53 10° NW visible
19 Oct 4.3 19:35:33 19° ENE 19:36:02 19° ENE 19:39:33 10° NNE visible
19 Oct 3.8 21:15:46 48° NW 21:15:46 48° NW 21:19:37 10° NNW visible
20 Oct 3.3 20:38:47 53° NNE 20:38:47 53° NNE 20:42:54 10° N visible
20 Oct 5.7 22:19:00 15° WNW 22:19:00 15° WNW 22:20:38 10° NW visible
21 Oct 3.8 20:01:48 30° NE 20:01:48 30° NE 20:05:46 10° N visible
21 Oct 4.8 21:42:01 28° WNW 21:42:01 28° WNW 21:44:58 10° NNW visible
22 Oct 4.5 19:24:49 16° ENE 19:25:04 16° ENE 19:28:01 10° NNE visible
22 Oct 3.8 21:05:02 45° NNW 21:05:02 45° NNW 21:08:34 10° NNW visible
23 Oct 3.6 20:28:03 41° NNE 20:28:03 41° NNE 20:31:43 10° N visible
23 Oct 5.6 22:08:16 17° WNW 22:08:16 17° WNW 22:09:58 10° NW visible
24 Oct 4.1 19:51:03 24° NE 19:51:03 24° NE 19:54:27 10° N visible
24 Oct 4.7 21:31:16 29° NW 21:31:16 29° NW 21:34:00 10° NNW visible
25 Oct 4.7 19:14:04 13° ENE 19:14:07 13° ENE 19:16:19 10° NNE visible
25 Oct 3.9 20:54:17 39° N 20:54:17 39° N 20:57:27 10° NNW visible
26 Oct 3.9 20:17:18 32° NNE 20:17:18 32° NNE 20:20:30 10° N visible
26 Oct 5.5 21:57:31 18° NW 21:57:31 18° NW 21:59:11 10° NW visible
